Location: Unspecified
(0.0000°N, 0.0000°E)
Time: 04:11:47
(UTC+02:00)

ISS - All Passes

Search period start: 03 September 2014 00:00
Search period end: 13 September 2014 00:00
Orbit: 413 x 419 km, 51.6° (Epoch: 02 September)

Date Brightness Start Highest point End Pass type
(mag) Time Alt. Az. Time Alt. Az. Time Alt. Az.
03 Sep - 07:02:16 10° SSE 07:03:32 12° SE 07:04:47 10° ESE visible
03 Sep - 08:37:27 10° WSW 08:40:04 21° NW 08:42:40 10° N daylight
03 Sep - 20:12:43 10° WNW 20:15:44 32° SW 20:18:47 10° SSE daylight
04 Sep - 07:48:18 10° SW 07:51:33 52° NW 07:54:47 10° NNE daylight
04 Sep - 19:23:54 10° NW 19:27:13 87° SW 19:30:33 10° SE daylight
05 Sep - 06:59:44 10° SSW 07:03:01 56° SE 07:06:16 10° NE visible
05 Sep - 18:35:37 10° NNW 18:38:40 34° NE 18:41:44 10° ESE daylight
06 Sep - 06:11:45 10° S 06:14:27 23° SE 06:17:08 10° ENE visible
06 Sep - 07:50:02 10° WNW 07:50:58 11° NW 07:51:55 10° NW daylight
06 Sep - 17:48:04 10° NNE 17:50:06 15° NE 17:52:07 10° E daylight
06 Sep - 19:24:25 10° W 19:26:37 17° SW 19:28:49 10° SSW daylight
07 Sep - 05:25:25 10° SE 05:25:50 10° SE 05:26:16 10° ESE visible
07 Sep - 06:59:36 10° WSW 07:02:23 24° NW 07:05:08 10° N visible
07 Sep - 18:34:54 10° NW 18:38:00 38° SW 18:41:08 10° SSE daylight
08 Sep - 06:10:29 10° SW 06:13:47 62° NW 06:17:03 10° NNE visible
08 Sep - 17:46:06 10° NNW 17:49:24 79° NE 17:52:44 10° SE daylight
09 Sep - 05:21:56 10° SSW 05:25:10 47° SE 05:28:22 10° NE visible
09 Sep - 16:57:50 10° N 17:00:47 29° NE 17:03:44 10° ESE daylight
10 Sep - 04:34:00 10° S 04:36:31 20° SE 04:39:01 10° ENE night (unlit)
10 Sep - 06:11:30 10° W 06:13:02 13° NW 06:14:34 10° NNW visible
10 Sep - 16:10:28 10° NNE 16:12:07 13° NE 16:13:46 10° E daylight
10 Sep - 17:46:12 10° WNW 17:48:38 19° SW 17:51:04 10° S daylight
11 Sep - 05:21:26 10° WSW 05:24:21 28° NW 05:27:16 10° N night (unlit)
11 Sep - 16:56:46 10° NW 16:59:57 45° SW 17:03:09 10° SSE daylight
12 Sep - 04:32:21 10° SW 04:35:41 75° NW 04:38:59 10° NNE night (unlit)
12 Sep - 16:07:59 10° NNW 16:11:16 65° NE 16:14:34 10° SE daylight
